Wind_Speed
8 9 10 11 12 13 14 14 16 18 18 19 19 21 21 22 23 22 22 22 23 23 23 23 23 24 23 23 23 24 24 24 25 24 24 24 25 25 25 26 26 27 27
9 9 10 10 11 11 12 13 15 17 18 18 19 20 21 22 22 22 23 23 24 24 24 24 24 26 26 25 26 26 26 26 26 26 26 27 27 27 28 28 29 30 31
8 9 10 10 10 11 12 13 15 17 18 18 19 19 20 21 21 22 23 23 24 24 25 25 26 26 26 27 27 27 28 29 28 28 28 29 29 29 30 31 32 32 33
8 8 9 10 10 11 11 13 14 16 17 17 18 19 20 20 21 22 23 24 24 24 25 26 26 27 28 27 27 28 29 29 30 30 30 31 31 32 33 33 34 35 35
9 9 10 10 10 11 11 13 14 16 17 18 19 19 20 20 21 22 23 24 24 25 26 26 26 27 28 28 29 30 30 32 32 32 32 33 33 34 35 36 37 37 37
11 11 11 11 10 11 12 12 14 16 18 19 20 20 20 21 21 22 23 23 24 26 27 27 28 28 29 30 30 31 32 32 32 33 34 34 34 36 37 37 38 39 40
12 12 11 11 11 12 12 12 14 15 17 19 21 22 22 21 21 22 23 23 24 25 26 27 27 28 29 30 30 31 33 34 35 35 35 36 38 39 39 39 40 41 42
13 13 14 13 13 13 13 14 13 14 15 17 19 20 21 21 22 22 22 23 25 25 26 27 27 28 29 31 32 33 34 35 36 36 37 38 39 40 41 42 43 44 45
15 15 14 15 14 15 15 14 14 14 15 17 19 20 21 21 22 23 23 24 25 25 26 27 29 30 30 31 32 33 35 36 36 37 39 40 41 42 43 45 46 47 47
17 16 16 15 15 16 16 15 15 15 16 17 18 20 22 22 22 22 23 24 24 25 26 28 30 31 32 32 34 35 36 36 38 39 41 42 43 45 46 47 48 49 50
18 18 18 17 17 18 18 17 18 18 18 19 20 21 22 22 21 22 24 25 25 26 27 29 30 31 32 33 34 35 36 38 40 41 42 44 45 46 48 49 50 51 53
19 20 20 19 19 19 19 19 19 19 20 20 20 20 21 21 22 24 25 26 26 26 28 28 29 30 32 34 35 36 38 40 41 42 43 45 47 49 50 51 53 54 55
21 21 22 22 21 21 21 20 20 20 20 21 21 22 22 22 23 24 25 26 27 29 29 29 31 32 34 37 38 39 40 41 42 44 45 47 49 51 53 53 54 55 56
22 22 22 23 23 23 23 22 22 21 21 21 21 21 22 23 24 25 26 28 29 30 31 32 34 36 37 38 39 39 40 42 43 45 47 48 50 50 51 52 53 54 55
23 22 22 23 23 23 23 23 23 22 23 22 22 23 24 25 26 27 28 29 31 32 34 34 35 37 38 39 39 40 41 42 44 46 47 48 49 50 51 52 52 52 53
23 23 23 24 23 24 24 24 23 23 23 23 24 25 26 27 29 29 29 31 32 33 34 34 35 36 37 38 39 40 42 43 45 47 48 48 49 50 50 50 50 50 50
23 24 24 25 25 26 26 26 25 25 26 26 28 28 29 30 31 31 31 32 33 33 34 35 35 36 37 39 40 41 42 43 45 46 46 47 48 49 49 49 48 48 47
22 23 23 23 24 24 24 23 23 25 26 27 28 29 30 30 31 31 31 32 33 33 34 35 36 37 38 39 40 41 42 43 44 45 46 47 47 47 47 46 46 45 45
21 21 21 21 22 22 22 22 23 25 25 26 27 28 29 30 30 30 31 32 33 33 34 35 36 37 38 39 40 42 43 43 44 45 45 45 45 45 44 43 43 42 41
19 19 20 20 20 20 21 22 23 24 25 26 27 28 28 29 29 30 31 32 33 34 35 36 37 38 39 40 41 42 43 43 44 44 44 44 44 43 42 41 40 38 37
18 19 19 20 20 21 22 23 24 25 26 27 27 27 28 28 30 31 32 33 34 35 36 37 38 39 39 40 40 41 41 42 42 42 41 41 40 39 38 37 36 35 34
18 19 20 20 21 22 23 24 24 25 26 27 27 27 28 30 31 33 33 34 35 36 37 37 38 38 38 38 38 38 38 38 38 37 36 36 36 35 34 33 32 31 31
18 19 20 21 22 23 23 24 24 25 26 27 28 29 30 31 32 32 33 33 34 34 34 35 35 35 35 36 36 35 35 35 35 34 34 34 33 31 30 30 29 29 28
19 20 20 21 21 21 22 23 24 25 26 27 28 29 30 30 30 30 31 32 32 33 33 33 33 33 34 34 33 33 32 32 31 31 31 31 30 29 28 28 27 26 25
19 20 20 21 22 23 24 25 26 27 27 28 29 29 28 28 28 29 30 30 30 31 31 31 32 32 31 31 30 30 29 29 29 29 28 28 27 26 26 25 24 23 22
19 20 21 22 23 24 25 25 26 27 27 27 27 27 27 27 28 28 28 28 29 29 30 30 30 29 29 28 28 27 27 27 26 26 25 25 24 24 23 22 21 20 20
Wind_Direction
269 262 258 255 251 248 249 244 237 233 231 232 234 236 237 237 237 239 242 243 242 244 248 250 251 251 253 255 256 259 261 263 264 267 269 271 273 274 276 278 279 280 281
274 265 262 258 255 256 254 246 237 234 235 234 234 235 236 237 238 240 242 245 245 247 249 252 253 253 254 256 258 261 263 265 266 268 270 271 273 275 278 280 281 281 281
283 276 268 261 261 261 255 244 240 236 235 235 235 235 235 237 241 245 246 247 249 250 251 253 255 255 256 259 261 262 264 265 267 269 270 271 273 275 277 279 281 281 282
284 283 275 267 265 265 258 246 240 238 236 235 236 237 238 242 246 249 250 251 252 253 254 254 256 258 259 259 262 265 267 267 267 269 271 271 273 275 277 279 280 282 283
283 284 281 275 270 269 261 250 244 242 241 238 239 241 243 246 250 254 254 253 254 255 256 255 256 258 259 260 263 265 267 268 269 271 272 273 274 276 278 280 281 282 282
283 283 283 279 274 270 266 258 249 246 245 243 243 244 247 248 251 255 256 256 257 259 259 258 260 261 261 262 264 265 268 270 271 272 274 275 276 277 279 281 281 282 283
281 281 279 276 276 275 270 260 253 249 246 244 243 244 247 250 253 255 255 258 260 262 261 262 262 262 263 265 266 268 269 270 272 274 276 276 277 278 279 280 282 283 284
277 279 278 274 275 275 274 271 261 252 248 248 247 246 248 250 254 258 259 262 263 264 264 263 263 264 264 267 270 271 272 273 274 275 275 277 278 279 280 281 282 283 283
275 276 275 272 273 272 275 272 264 259 256 253 251 250 251 254 258 262 265 268 266 266 265 265 266 267 267 269 271 273 274 275 276 277 276 278 278 280 281 282 284 284 284
272 273 274 271 273 274 273 272 269 266 262 262 262 257 257 259 261 261 264 266 267 268 269 269 270 270 270 273 275 277 276 277 278 279 279 280 280 281 282 283 284 285 285
271 273 272 270 270 270 271 270 269 266 267 264 264 262 263 265 264 265 266 267 270 272 273 273 272 272 273 275 277 277 278 279 281 282 282 282 283 284 284 285 286 286 287
269 271 270 269 271 271 271 270 269 268 268 267 267 266 265 266 267 270 271 271 273 273 274 273 274 275 277 278 280 281 282 283 284 285 285 285 285 286 287 287 288 288 289
268 268 268 268 269 270 272 273 272 272 273 271 271 272 271 271 273 276 277 277 278 279 279 278 278 280 281 281 282 282 283 284 286 287 287 288 287 287 288 289 289 289 290
266 266 266 268 268 269 273 272 273 276 278 277 276 275 275 275 278 280 282 282 281 281 281 282 282 282 284 285 285 285 286 287 288 289 289 289 290 290 291 292 292 292 291
266 267 270 269 271 273 272 273 274 278 278 276 275 275 276 278 281 283 283 284 284 284 287 287 287 286 286 286 288 289 289 289 289 291 292 292 292 292 293 294 294 294 294
267 269 269 269 271 272 273 274 273 274 275 278 279 279 281 284 285 285 285 286 287 287 287 288 289 289 290 290 290 291 292 292 292 293 294 295 295 296 296 296 296 296 296
266 268 270 270 270 272 273 272 272 273 274 277 279 282 284 286 286 286 286 287 288 289 289 290 292 293 294 294 294 294 295 296 296 296 297 297 297 297 298 298 297 297 296
267 270 273 272 272 273 273 272 272 276 279 281 282 284 286 287 288 289 291 291 291 291 291 292 293 295 296 296 297 298 299 299 299 299 300 300 300 300 300 299 299 298 298
268 270 272 273 274 274 274 275 278 280 283 285 287 287 288 289 290 290 291 292 292 293 294 294 296 297 298 299 300 301 301 301 301 301 301 301 301 302 301 301 301 301 300
269 271 272 274 275 276 278 281 283 285 287 288 290 290 291 291 292 294 295 296 296 297 298 299 300 300 301 301 302 302 302 302 302 301 302 302 303 303 302 302 302 301 300
270 272 274 275 277 279 281 283 285 287 289 292 293 295 296 297 297 298 298 298 298 299 300 301 302 302 303 303 304 304 304 304 304 304 305 305 305 304 302 302 301 300 301
271 273 276 278 281 283 284 286 287 289 291 293 295 297 299 299 300 299 300 300 301 302 302 303 304 305 305 306 306 306 307 307 308 308 308 308 308 306 304 304 304 302 302
275 275 277 281 283 284 286 288 290 292 294 295 297 299 301 301 301 301 302 303 304 305 306 307 307 307 307 307 307 307 308 308 309 309 309 310 311 309 307 306 305 304 304
276 278 281 285 287 289 291 292 293 295 297 298 299 301 302 302 303 304 305 306 307 308 309 309 310 310 310 310 309 310 309 310 310 311 311 312 311 311 310 309 308 308 306
282 285 287 290 292 292 293 295 295 297 298 300 301 302 303 304 305 306 307 308 309 310 310 311 311 312 312 312 312 312 311 312 312 313 314 315 315 315 315 313 311 309 308
285 287 290 292 293 294 294 296 298 299 300 301 302 302 303 305 305 306 307 309 310 311 311 312 312 312 312 312 313 313 313 313 314 315 317 317 318 318 318 317 316 313 311
Height
5841 5841 5841 5841 5841 5842 5842 5843 5844 5846 5848 5850 5852 5854 5856 5859 5861 5863 5865 5866 5868 5869 5870 5871 5872 5873 5873 5874 5874 5875 5875 5875 5875 5875 5874 5874 5873 5872 5871 5870 5870 5869 5868
5839 5839 5838 5838 5838 5839 5839 5840 5841 5842 5844 5846 5848 5850 5852 5854 5856 5858 5859 5861 5862 5864 5865 5866 5867 5867 5868 5868 5869 5869 5869 5869 5869 5868 5868 5867 5866 5865 5864 5863 5862 5861 5860
5837 5837 5836 5836 5836 5836 5836 5837 5838 5839 5840 5842 5844 5846 5848 5850 5852 5853 5854 5856 5857 5858 5859 5860 5860 5861 5861 5862 5862 5862 5862 5862 5862 5861 5861 5860 5859 5858 5857 5856 5855 5853 5852
5836 5835 5834 5834 5834 5833 5834 5834 5835 5836 5837 5839 5840 5842 5844 5846 5847 5848 5849 5850 5851 5852 5852 5853 5854 5854 5855 5855 5856 5856 5855 5855 5855 5854 5853 5852 5852 5851 5849 5848 5847 5845 5844
5834 5833 5832 5832 5831 5831 5831 5831 5832 5833 5834 5835 5837 5839 5840 5841 5843 5844 5844 5845 5845 5845 5846 5846 5847 5848 5848 5849 5849 5848 5848 5848 5847 5846 5845 5845 5844 5842 5841 5839 5838 5836 5834
5831 5831 5830 5829 5829 5828 5828 5828 5828 5829 5830 5831 5832 5834 5835 5836 5838 5838 5839 5839 5839 5839 5839 5840 5840 5841 5841 5841 5841 5841 5841 5840 5840 5839 5838 5836 5835 5834 5832 5830 5828 5827 5825
5829 5828 5828 5827 5827 5826 5825 5824 5824 5824 5825 5826 5827 5829 5830 5832 5832 5833 5833 5833 5833 5833 5833 5833 5834 5834 5834 5834 5834 5833 5833 5832 5831 5830 5829 5828 5826 5824 5822 5821 5819 5816 5814
5826 5826 5825 5825 5824 5823 5822 5821 5820 5820 5820 5821 5823 5823 5825 5826 5827 5827 5828 5827 5827 5826 5826 5826 5826 5827 5826 5826 5826 5825 5824 5823 5822 5821 5820 5818 5816 5814 5812 5810 5808 5806 5803
5823 5822 5821 5821 5821 5820 5819 5818 5818 5817 5817 5817 5818 5819 5820 5820 5821 5822 5822 5821 5821 5820 5819 5819 5819 5819 5818 5818 5817 5816 5815 5814 5813 5811 5809 5807 5805 5803 5801 5799 5796 5794 5791
5819 5818 5818 5818 5817 5817 5816 5816 5815 5814 5814 5814 5814 5814 5814 5815 5815 5815 5815 5815 5814 5813 5813 5812 5811 5810 5810 5809 5808 5807 5806 5804 5803 5801 5798 5796 5794 5792 5789 5786 5783 5781 5777
5815 5814 5813 5813 5813 5813 5812 5812 5811 5811 5810 5809 5809 5808 5809 5809 5809 5809 5809 5808 5808 5807 5806 5805 5804 5802 5802 5801 5799 5798 5796 5795 5792 5790 5787 5785 5782 5779 5777 5774 5770 5767 5763
5810 5810 5809 5809 5809 5808 5808 5807 5807 5806 5806 5805 5804 5804 5804 5804 5804 5803 5802 5801 5801 5799 5798 5797 5796 5795 5793 5792 5790 5788 5786 5784 5781 5778 5775 5772 5770 5767 5763 5760 5756 5752 5748
5805 5805 5804 5804 5804 5803 5803 5802 5802 5801 5801 5800 5799 5799 5798 5798 5797 5796 5795 5794 5793 5792 5791 5789 5787 5786 5784 5782 5780 5777 5775 5772 5769 5766 5763 5760 5756 5753 5749 5745 5741 5736 5732
5799 5799 5799 5798 5798 5798 5797 5797 5797 5796 5795 5794 5794 5793 5793 5792 5791 5790 5788 5787 5786 5784 5782 5780 5778 5776 5774 5771 5769 5766 5763 5760 5757 5754 5750 5746 5742 5738 5734 5730 5725 5720 5715
5793 5793 5792 5792 5792 5792 5791 5791 5790 5790 5789 5789 5788 5787 5786 5785 5784 5783 5781 5779 5777 5775 5773 5771 5768 5766 5763 5760 5758 5755 5752 5748 5745 5741 5737 5733 5728 5724 5719 5715 5710 5704 5699
5787 5787 5787 5787 5786 5786 5786 5785 5784 5784 5783 5783 5782 5781 5779 5778 5777 5775 5773 5771 5769 5767 5764 5761 5758 5756 5753 5750 5746 5743 5740 5736 5732 5728 5723 5719 5714 5709 5705 5700 5695 5689 5684
5781 5781 5781 5780 5780 5780 5779 5779 5778 5777 5776 5775 5774 5773 5772 5770 5768 5766 5764 5762 5760 5757 5755 5752 5749 5745 5742 5739 5735 5731 5728 5723 5719 5714 5710 5705 5700 5695 5690 5685 5680 5675 5670
5775 5775 5774 5773 5773 5773 5772 5772 5771 5770 5769 5768 5766 5765 5763 5762 5760 5758 5755 5753 5750 5747 5745 5742 5738 5735 5731 5728 5724 5719 5715 5711 5706 5701 5696 5692 5686 5681 5676 5671 5666 5661 5656
5769 5768 5768 5767 5767 5766 5766 5765 5764 5763 5762 5760 5759 5757 5755 5753 5751 5749 5746 5743 5741 5737 5734 5731 5728 5724 5720 5716 5712 5708 5703 5698 5693 5688 5683 5678 5673 5668 5663 5658 5653 5648 5644
5763 5763 5762 5762 5761 5761 5760 5759 5758 5756 5755 5753 5752 5749 5747 5745 5743 5740 5737 5734 5731 5728 5724 5721 5717 5713 5709 5705 5700 5695 5691 5686 5681 5675 5670 5665 5660 5655 5651 5646 5641 5637 5633
5758 5757 5757 5756 5756 5755 5754 5753 5751 5749 5748 5746 5744 5741 5739 5737 5734 5731 5728 5725 5721 5718 5714 5710 5706 5702 5697 5692 5688 5683 5678 5673 5668 5663 5658 5653 5648 5644 5639 5635 5630 5626 5622
5752 5752 5751 5751 5750 5748 5747 5746 5744 5742 5740 5738 5736 5733 5731 5728 5725 5722 5718 5715 5711 5707 5703 5699 5695 5690 5686 5681 5676 5672 5667 5662 5657 5652 5647 5643 5638 5633 5629 5625 5621 5617 5613
5747 5746 5745 5744 5743 5742 5740 5738 5737 5735 5733 5730 5728 5725 5722 5719 5716 5712 5709 5705 5701 5697 5693 5688 5684 5680 5675 5670 5666 5661 5657 5652 5648 5643 5638 5634 5629 5625 5621 5617 5613 5609 5605
5741 5740 5739 5738 5736 5735 5733 5732 5730 5727 5725 5723 5720 5717 5713 5710 5707 5703 5699 5695 5691 5687 5683 5679 5674 5670 5665 5661 5656 5652 5648 5644 5639 5635 5630 5626 5621 5617 5613 5609 5605 5601 5598
5735 5734 5733 5731 5730 5728 5726 5724 5722 5720 5717 5714 5711 5708 5705 5702 5698 5695 5691 5687 5683 5679 5675 5670 5666 5662 5657 5653 5648 5644 5640 5636 5632 5628 5623 5619 5615 5611 5606 5602 5599 5595 5592
5728 5727 5726 5724 5723 5721 5719 5716 5714 5711 5709 5706 5703 5700 5697 5694 5690 5687 5683 5679 5675 5671 5667 5662 5658 5654 5650 5645 5641 5637 5633 5630 5625 5621 5617 5613 5609 5605 5601 5597 5593 5589 5586